Simultaneous Nadir Overpasses (SNOs) Predictions

Prediction of SNOs between GOES-17 and NOAA-20 Satellite Orbit:

Table of predicted SNOs for the next 14.0 days since TLE Epoch: 10/26/2024
Index Date Time (GOES-17) GOES-17 Lat,Lon NOAA-20 Lat,Lon Distance(km) Time Diff (sec)
1 10/26/2024 08:03:58 -0.00,-104.69 -0.95,-100.56 471.33 80
2 10/27/2024 20:25:54 0.00,-104.70 -0.25,-105.87 132.67 80
3 10/28/2024 20:09:50 0.00,-104.71 0.76,-101.34 384.25 80
4 10/30/2024 08:31:37 -0.00,-104.71 0.45,-106.60 215.64 80
5 10/31/2024 08:10:12 0.00,-104.72 -0.58,-102.07 300.91 80
6 11/01/2024 20:32:09 -0.01,-104.72 -0.61,-107.38 303.67 80
7 11/02/2024 20:16:04 -0.02,-104.72 0.42,-102.85 213.38 80
8 11/04/2024 08:37:51 0.02,-104.73 0.77,-108.12 385.92 80
9 11/05/2024 08:16:26 0.02,-104.73 -0.21,-103.58 130.10 80
10 11/06/2024 20:38:22 -0.02,-104.71 -0.96,-108.89 476.02 80
11 11/07/2024 20:22:18 -0.02,-104.72 0.08,-104.37 40.47 80
